Location: Laverne
(36.7100°N, 99.8930°W)
Time: 13:36:36
(UTC-06:00)

Cosmos-2242 - Pass Details

Date: 19 October 2017
Orbit: 592 x 618 km, 82.5° (Epoch: 19 November)

Event Time Altitude Azimuth Distance (km) Brightness Sun altitude
Rises 05:52:57 0° 360° (N) 2,844 6.5 -24.3°
Reaches altitude 10° 05:55:14 10° 6° (N) 1,941 5.7 -23.9°
Maximum altitude 05:59:21 45° 80° (E) 819 4.1 -23.1°
Drops below altitude 10° 06:03:29 10° 154° (SSE) 1,942 5.9 -22.2°
Sets 06:05:46 0° 160° (SSE) 2,846 6.7 -21.8°
